User: anonymous   Login
Location: Writing-on-Stone Provincial Park
(49.0825°N, 111.6163°W)
Time: 14:07:01
(UTC-06:00)
Language:

BREEZE-M DEB (TANK) - Orbit

View from above orbital plane
View from above orbital plane
View from above satellite
View from above satellite

Ground track
Ground track

The orbit data is extracted from the following two-line orbital elements,

1 29649U 06056B   16148.29114930 +.00002275 +00000-0 +31351-3 0  9998
2 29649 049.4577 155.8461 5398911 280.6771 025.5322 04.98435794168529
Epoch (UTC): 27 May 2016 06:59:15
Eccentricity: 0.5398911
inclination: 49.4577°
perigee height: 282 km
apogee height: 15914 km
right ascension of ascending node: 155.8461°
argument of perigee: 280.6771°
revolutions per day: 4.98435794
mean anomaly at epoch: 25.5322°
orbit number at epoch: 16852

The dashed part of the orbit path shows where the satellite is in the earth's shadow,  

DLR